User: anonymous   Login
Location: Wawayanda State Park
(41.1833°N, 74.4333°W)
Time: 15:21:11
(UTC-04:00)
Language:

Landsat 7 - Orbit

View from above orbital plane
View from above orbital plane
View from above satellite
View from above satellite

Ground track
Ground track

The orbit data is extracted from the following two-line orbital elements,

1 25682U 99020A   15186.26541408  .00000160  00000-0  45664-4 0  9990
2 25682 098.2167 255.9494 0001210 091.5785 268.5550 14.57102944862773
Epoch (UTC): 05 July 2015 06:22:11
Eccentricity: 0.0001210
inclination: 98.2167°
perigee height: 701 km
apogee height: 703 km
right ascension of ascending node: 255.9494°
argument of perigee: 91.5785°
revolutions per day: 14.57102944
mean anomaly at epoch: 268.5550°
orbit number at epoch: 86277

The dashed part of the orbit path shows where the satellite is in the earth's shadow,  

DLR